459P/Catalina (1998)

Japanese version
Home page
Updated on April 22, 2023

---------------------------------------------------------------------

* Profile

* Orbital Elements

                    Epoch = 1998 Mar.  8.0 TT
     T = 1998 Mar. 17.11129 TT        Peri. = 186.02626
     e = 0.4897339                    Node  = 274.54876 2000.0
     q = 1.7590379 AU                 Incl. =  13.87306
       a =  3.4472950 AU   n = 0.15398783   P =   6.40 years

* Magnitudes Graph

        H = 16.0  G = 0.15

---------------------------------------------------------------------

The orbital elements are printed on CBET 5241.
The magnitudes graphs are made with Comet for Windows.

---------------------------------------------------------------------

Copyright(C) Seiichi Yoshida (comet@aerith.net). All rights reserved.